Location: Marne
(34.0056°N, 117.9064°W)
Time: 05:30:37
(UTC+00:00)

Cosmos 468 - Pass Details

Date: 18 January 2020
Orbit: 762 x 783 km, 74.0° (Epoch: 17 February)

Event Time Altitude Azimuth Distance (km) Brightness Sun altitude
Rises 02:02:58 0° 346° (NNW) 3,229 7.7 -11.6°
Reaches altitude 10° 02:05:22 10° 349° (N) 2,301 6.9 -12.1°
Maximum altitude 02:10:33 66° 72° (ENE) 833 4.4 -13.1°
Drops below altitude 10° 02:15:43 10° 154° (SSE) 2,294 6.9 -14.2°
Sets 02:18:06 0° 157° (SSE) 3,219 7.7 -14.6°
